TimePST,TemperatureF,Dew PointF,Humidity,Sea Level PressureIn,VisibilityMPH,Wind Direction,Wind SpeedMPH,Gust SpeedMPH,PrecipitationIn,Events,Conditions,WindDirDegrees,DateUTC
12:15 AM,23.0,19.4,86,30.35,0.2,Calm,Calm,-,N/A,,Overcast,0,2013-01-12 08:15:00
12:35 AM,23.0,19.4,86,30.35,0.5,Calm,Calm,-,N/A,,Overcast,0,2013-01-12 08:35:00
12:55 AM,23.0,21.2,93,30.36,0.5,Calm,Calm,-,N/A,,Overcast,0,2013-01-12 08:55:00
1:15 AM,23.0,21.2,93,30.35,1.8,Calm,Calm,-,N/A,,Mostly Cloudy,0,2013-01-12 09:15:00
1:35 AM,23.0,19.4,86,30.36,6.0,Calm,Calm,-,N/A,,Partly Cloudy,0,2013-01-12 09:35:00
1:55 AM,23.0,19.4,86,30.36,3.0,Calm,Calm,-,N/A,,Clear,0,2013-01-12 09:55:00
2:15 AM,21.2,19.4,93,30.36,4.0,Calm,Calm,-,N/A,,Partly Cloudy,0,2013-01-12 10:15:00
2:35 AM,21.2,21.2,100,30.36,5.0,Calm,Calm,-,N/A,,Clear,0,2013-01-12 10:35:00
2:55 AM,21.2,19.4,93,30.36,9.0,Calm,Calm,-,N/A,,Clear,0,2013-01-12 10:55:00
3:15 AM,21.2,19.4,93,30.36,8.0,Calm,Calm,-,N/A,,Clear,0,2013-01-12 11:15:00
3:35 AM,21.2,17.6,86,30.36,9.0,Calm,Calm,-,N/A,,Clear,0,2013-01-12 11:35:00
3:55 AM,21.2,17.6,86,30.36,4.0,Calm,Calm,-,N/A,,Clear,0,2013-01-12 11:55:00
4:15 AM,19.4,15.8,86,30.36,10.0,Calm,Calm,-,N/A,,Clear,0,2013-01-12 12:15:00
4:35 AM,21.2,17.6,86,30.36,10.0,Calm,Calm,-,N/A,,Clear,0,2013-01-12 12:35:00
4:55 AM,19.4,17.6,93,30.36,10.0,Calm,Calm,-,N/A,,Clear,0,2013-01-12 12:55:00
5:15 AM,21.2,17.6,86,30.36,10.0,Calm,Calm,-,N/A,,Clear,0,2013-01-12 13:15:00
5:35 AM,21.2,17.6,86,30.36,10.0,Calm,Calm,-,N/A,,Clear,0,2013-01-12 13:35:00
5:55 AM,21.2,19.4,93,30.36,10.0,Calm,Calm,-,N/A,,Clear,0,2013-01-12 13:55:00
6:15 AM,21.2,17.6,86,30.36,10.0,Calm,Calm,-,N/A,,Clear,0,2013-01-12 14:15:00
6:35 AM,21.2,17.6,86,30.37,10.0,Calm,Calm,-,N/A,,Clear,0,2013-01-12 14:35:00
6:55 AM,21.2,17.6,86,30.37,9.0,Calm,Calm,-,N/A,,Clear,0,2013-01-12 14:55:00
7:15 AM,21.2,17.6,86,30.38,10.0,Calm,Calm,-,N/A,,Clear,0,2013-01-12 15:15:00
7:35 AM,21.2,17.6,86,30.39,6.0,Calm,Calm,-,N/A,,Clear,0,2013-01-12 15:35:00
7:55 AM,21.2,17.6,86,30.39,10.0,Calm,Calm,-,N/A,,Clear,0,2013-01-12 15:55:00
8:15 AM,19.4,17.6,93,30.40,1.8,Calm,Calm,-,N/A,,Clear,0,2013-01-12 16:15:00
8:35 AM,19.4,15.8,86,30.40,1.2,Calm,Calm,-,N/A,,Clear,0,2013-01-12 16:35:00
8:55 AM,19.4,17.6,93,30.41,4.0,Calm,Calm,-,N/A,,Clear,0,2013-01-12 16:55:00
9:15 AM,21.2,19.4,93,30.41,10.0,Calm,Calm,-,N/A,,Clear,0,2013-01-12 17:15:00
9:55 AM,24.8,23.0,93,30.42,10.0,Calm,Calm,-,N/A,,Clear,0,2013-01-12 17:55:00
10:15 AM,26.6,24.8,93,30.41,10.0,Calm,Calm,-,N/A,,Clear,0,2013-01-12 18:15:00
10:35 AM,28.4,26.6,93,30.41,10.0,Calm,Calm,-,N/A,,Clear,0,2013-01-12 18:35:00
10:55 AM,28.4,26.6,93,30.41,10.0,Calm,Calm,-,N/A,,Clear,0,2013-01-12 18:55:00
11:15 AM,28.4,26.6,93,30.41,10.0,Calm,Calm,-,N/A,,Clear,0,2013-01-12 19:15:00
11:35 AM,28.4,26.6,93,30.41,10.0,Calm,Calm,-,N/A,,Clear,0,2013-01-12 19:35:00
11:55 AM,28.4,26.6,93,30.41,10.0,Calm,Calm,-,N/A,,Clear,0,2013-01-12 19:55:00
12:15 PM,30.2,26.6,86,30.40,10.0,Calm,Calm,-,N/A,,Clear,0,2013-01-12 20:15:00
12:35 PM,30.2,26.6,86,30.40,10.0,Calm,Calm,-,N/A,,Clear,0,2013-01-12 20:35:00
12:55 PM,32.0,26.6,80,30.40,10.0,Calm,Calm,-,N/A,,Clear,0,2013-01-12 20:55:00
1:15 PM,32.0,24.8,75,30.41,10.0,Calm,Calm,-,N/A,,Clear,0,2013-01-12 21:15:00
1:35 PM,33.8,26.6,75,30.41,10.0,Calm,Calm,-,N/A,,Clear,0,2013-01-12 21:35:00
1:55 PM,33.8,24.8,70,30.41,10.0,Calm,Calm,-,N/A,,Clear,0,2013-01-12 21:55:00
2:15 PM,33.8,24.8,70,30.41,10.0,Calm,Calm,-,N/A,,Clear,0,2013-01-12 22:15:00
2:35 PM,33.8,24.8,70,30.41,10.0,Calm,Calm,-,N/A,,Clear,0,2013-01-12 22:35:00
2:55 PM,33.8,24.8,70,30.41,10.0,Calm,Calm,-,N/A,,Clear,0,2013-01-12 22:55:00
3:15 PM,33.8,23.0,65,30.41,10.0,Calm,Calm,-,N/A,,Clear,0,2013-01-12 23:15:00
3:35 PM,33.8,23.0,65,30.41,10.0,Calm,Calm,-,N/A,,Clear,0,2013-01-12 23:35:00
3:55 PM,33.8,21.2,60,30.41,10.0,Calm,Calm,-,N/A,,Clear,0,2013-01-12 23:55:00
4:15 PM,30.2,23.0,75,30.41,10.0,Calm,Calm,-,N/A,,Clear,0,2013-01-13 00:15:00
4:35 PM,30.2,23.0,75,30.41,10.0,Calm,Calm,-,N/A,,Clear,0,2013-01-13 00:35:00
5:15 PM,28.4,23.0,80,30.42,10.0,Calm,Calm,-,N/A,,Clear,0,2013-01-13 01:15:00
5:35 PM,28.4,23.0,80,30.41,10.0,Calm,Calm,-,N/A,,Clear,0,2013-01-13 01:35:00
5:55 PM,26.6,23.0,86,30.42,10.0,Calm,Calm,-,N/A,,Clear,0,2013-01-13 01:55:00
6:15 PM,24.8,21.2,86,30.43,10.0,Calm,Calm,-,N/A,,Clear,0,2013-01-13 02:15:00
6:35 PM,24.8,21.2,86,30.43,10.0,Calm,Calm,-,N/A,,Clear,0,2013-01-13 02:35:00
6:55 PM,24.8,21.2,86,30.43,10.0,Calm,Calm,-,N/A,,Clear,0,2013-01-13 02:55:00
7:15 PM,23.0,19.4,86,30.43,10.0,Calm,Calm,-,N/A,,Clear,0,2013-01-13 03:15:00
7:35 PM,23.0,21.2,93,30.43,10.0,Calm,Calm,-,N/A,,Clear,0,2013-01-13 03:35:00
7:55 PM,23.0,21.2,93,30.43,10.0,Calm,Calm,-,N/A,,Clear,0,2013-01-13 03:55:00
8:15 PM,23.0,19.4,86,30.43,8.0,Calm,Calm,-,N/A,,Clear,0,2013-01-13 04:15:00
8:35 PM,21.2,21.2,100,30.43,9.0,Calm,Calm,-,N/A,,Clear,0,2013-01-13 04:35:00
8:55 PM,21.2,19.4,93,30.43,5.0,Calm,Calm,-,N/A,,Clear,0,2013-01-13 04:55:00
9:15 PM,21.2,17.6,86,30.43,10.0,Calm,Calm,-,N/A,,Clear,0,2013-01-13 05:15:00
9:35 PM,21.2,19.4,93,30.44,8.0,Calm,Calm,-,N/A,,Clear,0,2013-01-13 05:35:00
9:55 PM,21.2,19.4,93,30.44,5.0,Calm,Calm,-,N/A,,Clear,0,2013-01-13 05:55:00
10:15 PM,21.2,19.4,93,30.45,7.0,Calm,Calm,-,N/A,,Clear,0,2013-01-13 06:15:00
10:35 PM,21.2,17.6,86,30.45,8.0,Calm,Calm,-,N/A,,Clear,0,2013-01-13 06:35:00
10:55 PM,21.2,19.4,93,30.46,10.0,Calm,Calm,-,N/A,,Clear,0,2013-01-13 06:55:00
11:15 PM,21.2,17.6,86,30.47,10.0,Calm,Calm,-,N/A,,Clear,0,2013-01-13 07:15:00
11:35 PM,21.2,19.4,93,30.47,10.0,Calm,Calm,-,N/A,,Clear,0,2013-01-13 07:35:00
11:55 PM,21.2,19.4,93,30.47,7.0,Calm,Calm,-,N/A,,Clear,0,2013-01-13 07:55:00